ARGENTIA (MARS), Canada

10:52 PM NST on January 19, 2017 (GMT -0330)
Argentia

Weather History for CWAR - October, 2012

Change the Weather History Date:

Saturday, October 6, 2012

  Actual Average Record
Temperature  
Mean Temperature 52 °F -  
Max Temperature 57 °F - - ()
Min Temperature 46 °F - - ()
Degree Days  
Heating Degree Days 14    
Growing Degree Days 2 (Base 50)    
Moisture  
Dew Point 45 °F    
Average Humidity 80    
Maximum Humidity 90    
Minimum Humidity 60    
Precipitation  
Precipitation 0.00 in - - ()
Sea Level Pressure  
Sea Level Pressure 30.00 in    
Wind  
Wind Speed 5 mph ()    
Max Wind Speed 8 mph    
Max Gust Speed -    
T = Trace of Precipitation, MM = Missing Value Source: Averaged Metar Reports

Daily Weather History Graph

Daily Weather History Graph

Search for Another Location

Airport or City:

Trip Planner

Search our weather history database for the weather conditions in past years. The results will help you decide how hot, cold, wet, or windy it might be!

Date:

Astronomy

Oct. 06, 2012 Rise Set
Actual Time 7:12 AM NDT 6:34 PM NDT
Civil Twilight 6:41 AM NDT 7:05 PM NDT
Nautical Twilight 6:06 AM NDT 7:40 PM NDT
Astronomical Twilight 5:30 AM NDT 8:16 PM NDT
Moon 10:26 PM NDT (10/6) 1:21 PM NDT (10/6)
Length of Visible Light 12h 23m
Length of Day
11h 22m
Waning Gibbous, 66% of the Moon is Illuminated
Oct 6
Waning Gibbous
Oct 8
Last Quarter
Oct 15
New
Oct 22
First Quarter
Oct 29
Full

Hourly Weather History & Observations

Time (NDT) Temp. Windchill Dew Point Humidity Pressure Visibility Wind Dir Wind Speed Gust Speed Precip Events Conditions
12:30 AM 49 °F - 45 °F 81% 29.96 in - NE 5.8 mph - -  
12:30 AM 49.5 °F - 45.0 °F 84% 29.96 in - NE 5.8 mph - N/A   Unknown
1:30 AM 49.3 °F - 45.3 °F 86% 29.96 in - NNE 5.8 mph - N/A   Unknown
2:30 AM 48.9 °F - 45.0 °F 86% 29.96 in - NNE 4.6 mph - N/A   Unknown
3:30 AM 49 °F - 45 °F 81% 29.96 in - North 3.5 mph - -  
3:30 AM 48.6 °F - 45.0 °F 87% 29.96 in - North 3.5 mph - N/A   Unknown
4:30 AM 48.0 °F - 45.0 °F 89% 29.96 in - NNE 6.9 mph - N/A   Unknown
5:30 AM 47.3 °F - 44.6 °F 90% 29.97 in - NNE 6.9 mph - N/A   Unknown
6:30 AM 47 °F - 44 °F 87% 29.98 in - NNE 6.9 mph - -  
6:30 AM 47.3 °F - 44.4 °F 90% 29.98 in - NNE 6.9 mph - N/A   Unknown
7:30 AM 46.4 °F 43.5 °F 43.3 °F 89% 30.00 in - NNE 5.8 mph - N/A   Unknown
8:30 AM 50.0 °F - 45.0 °F 83% 30.01 in - NE 5.8 mph - N/A   Unknown
9:30 AM 52 °F - 46 °F 73% 30.01 in - ENE 4.6 mph - -  
9:30 AM 51.6 °F - 45.9 °F 81% 30.01 in - ENE 4.6 mph - N/A   Unknown
10:30 AM 51.6 °F - 45.5 °F 80% 30.03 in - NW 5.8 mph - N/A   Unknown
11:30 AM 53.1 °F - 46.0 °F 77% 30.02 in - NW 5.8 mph - N/A   Unknown
12:30 PM 54 °F - 45 °F 64% 30.01 in - NW 8.1 mph - -  
12:30 PM 53.6 °F - 45.3 °F 74% 30.01 in - NW 8.1 mph - N/A   Unknown
1:30 PM 55.6 °F - 46.4 °F 71% 30.00 in - NNW 5.8 mph - N/A   Unknown
2:30 PM 55.4 °F - 46.6 °F 72% 30.00 in - NW 6.9 mph - N/A   Unknown
3:30 PM 56 °F - 46 °F 60% 30.00 in - WNW 3.5 mph - -  
3:30 PM 56.5 °F - 46.0 °F 68% 30.00 in - WNW 3.5 mph - N/A   Unknown
4:30 PM 56.7 °F - 46.0 °F 68% 30.01 in - West 2.3 mph - N/A   Unknown
5:30 PM 55.8 °F - 45.7 °F 69% 30.01 in - SW 3.5 mph - N/A   Unknown
6:30 PM 52 °F - 47 °F 76% 30.03 in - South 5.8 mph - -  
6:30 PM 52.2 °F - 46.6 °F 81% 30.03 in - South 5.8 mph - N/A   Unknown
7:30 PM 51.1 °F - 46.2 °F 83% 30.04 in - South 6.9 mph - N/A   Unknown
8:30 PM 50.2 °F - 45.5 °F 84% 30.04 in - South 5.8 mph - N/A   Unknown
9:30 PM 50 °F - 46 °F 83% 30.04 in - South 3.5 mph - -  
9:30 PM 50.4 °F - 46.4 °F 86% 30.04 in - South 3.5 mph - N/A   Unknown
10:30 PM 49.3 °F - 45.1 °F 86% 30.04 in - SSE 4.6 mph - N/A   Unknown
11:30 PM 48.4 °F - 44.6 °F 87% 30.05 in - SSE 4.6 mph - N/A   Unknown